Location: ???????
(54.6339°N, 39.4245°E)
Time: 03:33:48
(UTC+00:00)

Cosmos-2242 - Pass Details

Date: 19 May 2025
Orbit: 569 x 594 km, 82.5° (Epoch: 14 June)

Event Time Altitude Azimuth Distance (km) Brightness Sun altitude
Exits shadow 18:14:49 - 178° (S) 2,871 6.0 -5.7°
Rises 18:14:55 0° 178° (S) 2,827 6.0 -5.7°
Reaches altitude 10° 18:17:08 10° 174° (S) 1,929 5.1 -6.0°
Maximum altitude 18:21:19 57° 96° (E) 709 3.1 -6.4°
Drops below altitude 10° 18:25:31 10° 18° (NNE) 1,938 6.1 -6.8°
Sets 18:27:45 0° 15° (NNE) 2,842 7.0 -7.0°
